TimeCDT,TemperatureF,Dew PointF,Humidity,Sea Level PressureIn,VisibilityMPH,Wind Direction,Wind SpeedMPH,Gust SpeedMPH,PrecipitationIn,Events,Conditions,WindDirDegrees,DateUTC
12:15 AM,46.4,46.4,100,29.68,10.0,WSW,8.1,-,N/A,,Overcast,250,2012-09-20 05:15:00
12:35 AM,46.4,44.6,93,29.68,10.0,West,10.4,-,N/A,,Overcast,260,2012-09-20 05:35:00
12:55 AM,44.6,44.6,100,29.68,10.0,West,10.4,18.4,N/A,,Overcast,270,2012-09-20 05:55:00
1:15 AM,44.6,44.6,100,29.68,10.0,West,11.5,-,N/A,,Overcast,260,2012-09-20 06:15:00
1:35 AM,44.6,44.6,100,29.69,10.0,West,9.2,-,N/A,,Overcast,260,2012-09-20 06:35:00
1:55 AM,46.4,44.6,93,29.69,10.0,West,12.7,16.1,N/A,,Overcast,270,2012-09-20 06:55:00
2:15 AM,46.4,44.6,93,29.69,10.0,West,9.2,-,N/A,,Overcast,260,2012-09-20 07:15:00
2:35 AM,46.4,44.6,93,29.68,10.0,West,6.9,17.3,N/A,,Overcast,260,2012-09-20 07:35:00
2:55 AM,44.6,44.6,100,29.68,10.0,West,9.2,-,N/A,,Overcast,260,2012-09-20 07:55:00
3:15 AM,44.6,44.6,100,29.68,10.0,West,8.1,-,N/A,,Overcast,260,2012-09-20 08:15:00
3:35 AM,44.6,44.6,100,29.69,7.0,WSW,12.7,-,N/A,,Overcast,250,2012-09-20 08:35:00
3:55 AM,44.6,44.6,100,29.69,3.0,West,8.1,-,N/A,,Unknown,260,2012-09-20 08:55:00
4:15 AM,44.6,44.6,100,29.69,5.0,West,11.5,-,N/A,,Drizzle,260,2012-09-20 09:15:00
4:35 AM,44.6,44.6,100,29.69,5.0,West,8.1,-,0.01,,Overcast,260,2012-09-20 09:35:00
4:55 AM,44.6,44.6,100,29.69,5.0,WSW,10.4,17.3,0.01,,Overcast,250,2012-09-20 09:55:00
5:15 AM,44.6,44.6,100,29.69,7.0,West,11.5,18.4,N/A,,Light Drizzle,260,2012-09-20 10:15:00
5:35 AM,44.6,44.6,100,29.69,10.0,West,9.2,16.1,N/A,,Overcast,260,2012-09-20 10:35:00
5:55 AM,44.6,44.6,100,29.69,10.0,West,10.4,16.1,N/A,,Overcast,260,2012-09-20 10:55:00
6:15 AM,44.6,44.6,100,29.70,10.0,West,9.2,17.3,N/A,,Overcast,260,2012-09-20 11:15:00
6:35 AM,44.6,44.6,100,29.71,10.0,West,12.7,16.1,N/A,,Overcast,260,2012-09-20 11:35:00
6:55 AM,46.4,44.6,93,29.71,10.0,West,8.1,16.1,N/A,,Overcast,260,2012-09-20 11:55:00
7:15 AM,46.4,44.6,93,29.71,10.0,West,8.1,-,N/A,,Overcast,270,2012-09-20 12:15:00
7:35 AM,46.4,44.6,93,29.71,10.0,West,10.4,-,N/A,,Overcast,260,2012-09-20 12:35:00
7:55 AM,46.4,44.6,93,29.72,10.0,West,9.2,16.1,N/A,,Overcast,270,2012-09-20 12:55:00
8:15 AM,46.4,44.6,93,29.72,10.0,West,12.7,18.4,N/A,,Overcast,270,2012-09-20 13:15:00
8:35 AM,46.4,44.6,93,29.72,10.0,West,6.9,17.3,N/A,,Overcast,280,2012-09-20 13:35:00
8:55 AM,46.4,44.6,93,29.72,10.0,West,9.2,-,N/A,,Overcast,270,2012-09-20 13:55:00
9:15 AM,48.2,42.8,82,29.73,10.0,West,11.5,17.3,N/A,,Overcast,280,2012-09-20 14:15:00
9:35 AM,48.2,42.8,82,29.73,10.0,West,9.2,19.6,N/A,,Overcast,280,2012-09-20 14:35:00
9:55 AM,48.2,42.8,82,29.74,10.0,West,9.2,-,N/A,,Overcast,280,2012-09-20 14:55:00
10:15 AM,50.0,42.8,76,29.74,10.0,West,6.9,-,N/A,,Overcast,260,2012-09-20 15:15:00
10:55 AM,46.4,46.4,100,29.75,10.0,West,6.9,-,N/A,,Overcast,270,2012-09-20 15:55:00
11:15 AM,46.4,46.4,100,29.75,10.0,West,10.4,-,N/A,Rain,Light Rain,280,2012-09-20 16:15:00
11:35 AM,48.2,46.4,93,29.75,10.0,West,10.4,16.1,N/A,,Overcast,270,2012-09-20 16:35:00
11:55 AM,48.2,46.4,93,29.76,7.0,West,8.1,-,N/A,Rain,Light Rain,280,2012-09-20 16:55:00
12:15 PM,53.6,44.6,72,29.76,10.0,West,16.1,21.9,N/A,,Mostly Cloudy,280,2012-09-20 17:15:00
12:35 PM,51.8,42.8,71,29.76,10.0,West,15.0,20.7,N/A,,Overcast,280,2012-09-20 17:35:00
12:55 PM,53.6,42.8,67,29.76,10.0,WNW,9.2,16.1,N/A,Rain,Light Rain,300,2012-09-20 17:55:00
1:15 PM,51.8,41.0,67,29.77,7.0,NW,11.5,-,N/A,,Overcast,310,2012-09-20 18:15:00
1:35 PM,51.8,41.0,67,29.77,10.0,WNW,11.5,19.6,N/A,,Overcast,290,2012-09-20 18:35:00
1:55 PM,51.8,41.0,67,29.78,10.0,West,13.8,18.4,N/A,,Overcast,280,2012-09-20 18:55:00
2:15 PM,51.8,39.2,62,29.78,10.0,West,18.4,25.3,N/A,,Overcast,280,2012-09-20 19:15:00
2:35 PM,50.0,41.0,71,29.79,10.0,West,11.5,17.3,N/A,,Light Drizzle,270,2012-09-20 19:35:00
2:55 PM,46.4,42.8,87,29.79,10.0,West,9.2,-,N/A,Rain,Light Rain,260,2012-09-20 19:55:00
3:15 PM,48.2,44.6,87,29.80,10.0,West,9.2,-,N/A,,Overcast,280,2012-09-20 20:15:00
3:35 PM,46.4,42.8,87,29.80,10.0,West,8.1,-,N/A,Rain,Light Rain,270,2012-09-20 20:35:00
3:55 PM,48.2,42.8,82,29.80,10.0,West,9.2,-,N/A,,Mostly Cloudy,260,2012-09-20 20:55:00
4:15 PM,46.4,44.6,93,29.80,10.0,WSW,8.1,-,N/A,,Mostly Cloudy,250,2012-09-20 21:15:00
4:35 PM,48.2,44.6,87,29.80,10.0,WSW,6.9,-,N/A,,Mostly Cloudy,250,2012-09-20 21:35:00
4:55 PM,50.0,42.8,76,29.80,10.0,WSW,10.4,-,N/A,,Scattered Clouds,250,2012-09-20 21:55:00
5:15 PM,48.2,42.8,82,29.82,7.0,WNW,13.8,20.7,0.01,Rain,Heavy Rain,300,2012-09-20 22:15:00
5:35 PM,46.4,41.0,81,29.82,10.0,WNW,5.8,-,0.03,,Overcast,300,2012-09-20 22:35:00
5:55 PM,46.4,41.0,81,29.82,10.0,WNW,4.6,-,0.03,,Mostly Cloudy,290,2012-09-20 22:55:00
6:15 PM,46.4,41.0,81,29.83,10.0,WNW,3.5,-,0.01,,Scattered Clouds,290,2012-09-20 23:15:00
6:35 PM,44.6,41.0,87,29.83,10.0,West,3.5,-,0.01,,Mostly Cloudy,280,2012-09-20 23:35:00
6:55 PM,44.6,39.2,81,29.83,10.0,Calm,Calm,-,0.01,,Mostly Cloudy,0,2012-09-20 23:55:00
7:15 PM,42.8,42.8,100,29.83,10.0,Calm,Calm,-,N/A,,Scattered Clouds,0,2012-09-21 00:15:00
7:35 PM,41.0,41.0,100,29.83,10.0,Calm,Calm,-,N/A,,Clear,0,2012-09-21 00:35:00
7:55 PM,39.2,39.2,100,29.84,1.8,SW,3.5,-,N/A,,Mist,230,2012-09-21 00:55:00
8:15 PM,39.2,39.2,100,29.84,7.0,SW,3.5,-,N/A,,Scattered Clouds,230,2012-09-21 01:15:00
8:35 PM,39.2,39.2,100,29.84,10.0,Calm,Calm,-,N/A,,Clear,0,2012-09-21 01:35:00
8:55 PM,37.4,37.4,100,29.84,2.0,SW,3.5,-,N/A,,Clear,230,2012-09-21 01:55:00
9:15 PM,39.2,39.2,100,29.83,10.0,WSW,3.5,-,N/A,,Clear,240,2012-09-21 02:15:00
9:35 PM,37.4,37.4,100,29.83,1.5,Calm,Calm,-,N/A,,Mist,0,2012-09-21 02:35:00
9:55 PM,37.4,37.4,100,29.83,2.5,SW,3.5,-,N/A,,Clear,230,2012-09-21 02:55:00
10:15 PM,35.6,35.6,100,29.83,0.8,WSW,4.6,-,N/A,,Mist,240,2012-09-21 03:15:00
10:35 PM,37.4,37.4,100,29.83,10.0,SW,4.6,-,N/A,,Clear,230,2012-09-21 03:35:00
11:35 PM,37.4,37.4,100,29.82,10.0,Calm,Calm,-,N/A,,Clear,0,2012-09-21 04:35:00
11:55 PM,37.4,37.4,100,29.81,10.0,SW,3.5,-,N/A,,Clear,230,2012-09-21 04:55:00